Location: Monrovia
(34.7865°N, 86.7139°W)
Time: 00:54:34
(UTC+00:00)

USA 267 - Pass Details

Date: 14 July 2020
Orbit: 1102 x 1106 km, 123.0° (Epoch: 09 August)

Event Time Altitude Azimuth Distance (km) Brightness Sun altitude
Exits shadow 05:54:07 52° 71° (ENE) 1,347 3.7 -33.6°
Maximum altitude 05:55:02 56° 41° (NE) 1,290 3.7 -33.6°
Drops below altitude 10° 06:01:23 10° 325° (NW) 2,961 6.1 -33.6°
Sets 06:03:54 0° 321° (NW) 3,921 6.8 -33.6°
